Other Public Products
Issued by NWS Charleston, SC

Current Version | Previous Version | Graphics & Text | Print | Product List | Glossary On
Versions: 1 2 3 4 5 6 7 8 9 10 11 12 13 14 15 16 17 18 19 20 21 22 23 24 25 26 27 28 29 30 31 32 33 34 35 36 37 38 39 40 41 42 43 44 45 46 47 48 49 50
000
FPUS82 KCHS 211027
OPUCHS

TEST...KCHS/KSAV Gateway Observations...TEST
National Weather Service Charleston SC
500 AM EST TUE NOV 21 2017

NOTE: "fair" indicates few or no clouds below 12,000 feet with no
significant weather and/or obstructions to visibility.

SCZ050-WAZ558-NCZ071-TXZ119-213-PAZ071-DCZ001-FLZ074-172-MI076-
NYZ176-178-MAZ016-IL014-TNZ027-NJZ106-GAZ044-MD014-211100-

...Gateway Observations for Charleston International...

CITY           SKY/WX    TMP DP  RH WIND       PRES   REMARKS
Chas Airport   MOCLDY    46  43  89 N5        30.18S
Seattle        MOCLDY    40  38  93 N9        30.02F WCI  34
Charlotte      MOCLDY    42  32  67 SE3       30.20F
Dallas DFW     MOCLDY    54  45  71 S14       29.82F
Dallas Love    PTCLDY    51  43  74 S13       29.85F
Philladelphia  PTCLDY    41  31  67 SW7       30.14S
Wash National  MOCLDY    40  30  67 S8        30.14F WCI  34
Baltimore      PTCLDY    34  27  75 SW5       30.12F WCI  30
Miami          MOCLDY    72  71  97 CALM      29.95S
Detroit        PTCLDY    39  25  57 SW18      29.74F WCI  30
Newark         CLOUDY    37  27  67 SW7       30.12F WCI  32
Laguardia      MOCLDY    43  30  60 SW9       30.11F
J F K          MOCLDY    41  32  70 SW12      30.13F
Boston Logan   CLEAR     36  27  69 S9        30.09F WCI  29
Ft. Lauderdale MOCLDY    71  71 100 N6        29.95S
Chicago O`Hare CLOUDY    44  31  60 SW17G30   29.66R
Chicago Midway CLOUDY    44  32  62 SW14      29.68S
Houston Bush   CLOUDY    55  51  86 SE6       29.93F
Houston Hobby  MOCLDY    60  59  96 CALM      29.93F
Nashville      CLEAR     39  28  64 CALM      30.05F
Atlanta        CLOUDY    45  39  79 E6        30.13F

$$

GAZ044-118-TXZ119-213-NCZ071-DCZ001-MDZ014-506-PAZ021-071-NJZ106-
NYZ176-178-MAZ106-OHZ011-021-055-MIZ076-KYZ091-ILZ014-INZ047-
MNZ060-ONZ431-211100-

...Gateway Observations for Savannah International...

CITY           SKY/WX    TMP DP  RH WIND       PRES   REMARKS
Savannah Arpt  CLOUDY    53  49  86 NE5       30.16S
Atlanta        CLOUDY    45  39  79 E6        30.13F
Charlotte      MOCLDY    42  32  67 SE3       30.20F
Dallas DFW     MOCLDY    54  45  71 S14       29.82F
Houston Bush   CLOUDY    55  51  86 SE6       29.93F
Wash National  MOCLDY    40  30  67 S8        30.14F WCI  34
Wash Dulles    PTCLDY    36  27  69 S6        30.12S WCI  31
Baltimore      PTCLDY    34  27  75 SW5       30.12F WCI  30
Philadelphia   PTCLDY    41  31  67 SW7       30.14S
Newark         CLOUDY    37  27  67 SW7       30.12F WCI  32
Laguardia      MOCLDY    43  30  60 SW9       30.11F
J F K          MOCLDY    41  32  70 SW12      30.13F
Boston         CLEAR     36  27  69 S9        30.09F WCI  29
Pittsburg      CLEAR     32  22  66 S6        29.95F WCI  26
Akron          CLEAR     39  21  48 SW17G24   29.90S WCI  30
Cleveland      PTCLDY    40  23  50 S12       29.88S WCI  33
Cincinnati     PTCLDY    38  25  59 S10       29.95F WCI  31
Columbus       CLEAR     36  24  62 S12       29.95S WCI  28
Detroit        PTCLDY    39  25  57 SW18      29.74F WCI  30
Chicago O`Hare CLOUDY    44  31  60 SW17G30   29.66R
Minneapolis    MOCLDY    30  19  63 W20G30    29.68R WCI  17
Indianapolis   CLOUDY    42  25  50 SW15      29.87F
Toronto Canada PTCLDY    41  30  65 S14G20    29.72F

$$




USA.gov is the U.S. government's official web portal to all federal, state and local government web resources and services.